Vertical_Velocity
-1 -2 -2 -5 -1 -2 -2 -5 -19 -35 11 26 -7 -5 -8 -8 -2 -11 -7 -8 -12 -1 5 5 5 0 -1 -1 -3 -2 -1 -1 0 -4 2 0 -4 2
-2 -1 -2 -2 0 -2 -3 -2 -3 -16 -51 -15 3 -7 -9 -5 -0 -5 -4 -6 2 -3 -10 -10 -3 1 1 -3 -3 -0 -1 -0 3 1 4 0 1 4
-3 -1 -0 -2 -0 -2 -2 -1 -0 -5 -21 7 -12 -10 -7 -8 -5 -8 -2 3 1 -3 -9 -2 -1 -5 -1 5 3 -0 -0 1 1 3 2 -0 3 -2
1 1 -0 -2 -2 -4 -3 -1 -3 2 -11 -25 -3 1 -1 -3 -6 1 -2 2 -2 -9 -1 -5 -7 1 -1 -3 -2 1 2 0 2 1 1 0 1 0
-2 -3 -2 -3 -1 -2 -1 -1 -2 1 -2 -10 -6 -2 -2 -3 3 -2 1 -0 -6 -1 -4 -5 4 -2 0 -2 -2 -1 -2 -1 -0 0 1 1 2 -1
-2 -3 -2 -3 -6 -2 1 -1 -0 -3 -3 -3 -2 -4 -1 5 -4 -9 13 -7 0 -6 -3 -9 -2 1 -4 -0 0 -0 -0 0 0 -1 -2 -1 1 2
-1 -0 -3 -3 -2 -4 -14 -3 -2 -6 -5 -3 -3 -2 1 2 -7 -0 -0 6 -6 -2 2 -2 2 -5 -4 -2 -4 -1 -0 -0 1 4 1 -1 -2 1
-1 0 1 1 -3 -2 -2 2 -3 -14 -7 -8 1 -4 4 1 -1 -3 -2 1 8 -16 5 -2 -4 1 -1 -1 -0 1 2 2 1 0 2 2 0 -0
-0 -2 1 -6 -6 -4 3 3 5 0 -7 -8 1 -7 3 -3 -0 3 -3 -1 -2 -3 10 3 -3 3 -1 -1 0 -0 0 0 -3 -6 -7 -3 -3 -3
-2 -8 -10 -4 -3 -1 1 4 2 -4 -3 3 -3 0 -1 -0 -4 0 0 3 -0 -8 -1 6 0 -2 -4 -5 -2 -0 -0 0 -0 -0 1 3 4 4
-3 -2 -4 5 1 -3 -10 -2 1 -1 -4 -5 -4 -3 -2 -3 -3 2 -4 -1 5 1 -3 -5 -3 6 -5 -2 -1 -2 -2 -1 -1 -1 0 -0 -2 -1
-7 -5 0 -2 -6 -5 -4 -2 2 -1 1 -2 -6 -6 -4 -3 -5 -7 -2 2 -1 11 -13 1 -2 3 10 -7 -4 -0 1 -5 -3 -1 -1 -0 -1 -3
-4 -4 -1 -1 -3 -1 -3 -2 -2 1 -1 -0 -1 -0 -2 -1 -1 -5 -4 -3 4 -5 -2 -1 2 -3 -7 1 -2 -2 -3 1 0 -3 -2 1 1 -1
-0 -2 -1 -3 -1 -1 1 -0 -2 -2 -1 -1 2 0 1 -2 -3 -4 -1 -4 -5 5 1 -2 -1 -1 0 5 -6 5 2 -2 1 -1 0 -0 -1 -1
1 -1 -2 -2 -0 -0 -4 -0 -1 -1 1 1 -0 -1 1 2 1 -2 -4 -1 -8 3 -1 -1 -1 -3 -4 -4 -8 2 6 7 -0 4 4 3 1 1
3 4 -1 -1 -1 2 -0 -1 -1 1 2 4 1 -1 -0 -1 -1 1 1 0 2 -7 -2 1 -1 -1 0 -3 -5 3 -3 4 9 2 -1 1 3 1
-3 -1 -1 -1 -2 -2 -4 -2 1 0 -1 -2 -0 -0 -1 2 -3 -0 -2 -1 -2 5 0 -2 -0 -1 2 2 3 2 3 2 1 -2 3 3 0 1
1 1 -2 -1 1 2 1 -1 -3 -2 -1 0 -1 -1 -0 1 1 0 -1 -4 2 2 -1 0 1 1 -1 -3 6 2 0 1 1 -6 -2 -2 2 5
-0 -1 -1 1 0 -1 -0 -1 1 -1 1 2 1 0 1 -1 1 -1 -1 -1 -3 -1 1 -0 2 2 2 -2 -5 -2 2 1 -2 -2 -1 1 0 -1
-2 0 -0 -0 -1 -0 -1 -0 -1 0 0 1 -0 -1 1 -0 3 -1 -1 -1 -1 -2 0 0 2 2 3 3 -1 -2 0 0 3 -2 -2 3 3 1
-2 -1 -1 -1 -2 -1 -2 -3 -2 -1 -0 0 -0 -0 -1 0 -2 -2 -3 -3 -0 -1 0 0 0 2 1 1 -4 0 -4 2 2 -0 -3 -3 4 0
1 0 -1 -2 -1 -2 -2 -1 -2 -1 -2 -2 -1 -2 -2 -0 0 -0 -0 -1 -0 -2 -1 -0 0 2 2 2 -1 2 -1 -2 2 1 -1 1 2 -6
-0 0 -1 -2 -1 -1 -1 -1 -3 -3 -4 -2 -1 -1 1 1 -2 -1 -1 -2 -0 -1 -1 0 -0 2 1 1 1 1 -3 -1 -2 0 3 2 0 2
Height
5636 5628 5619 5611 5602 5593 5583 5573 5562 5561 5565 5550 5532 5518 5496 5480 5464 5447 5433 5419 5404 5393 5382 5374 5368 5362 5358 5356 5355 5354 5354 5355 5356 5357 5362 5367 5375 5384
5622 5613 5604 5595 5586 5576 5565 5553 5540 5528 5524 5526 5513 5487 5464 5446 5423 5403 5387 5374 5365 5354 5343 5337 5333 5330 5329 5328 5328 5327 5326 5325 5326 5328 5331 5334 5341 5347
5607 5599 5589 5579 5570 5558 5547 5535 5520 5500 5486 5496 5472 5457 5437 5408 5392 5371 5359 5348 5341 5332 5322 5315 5309 5305 5305 5304 5303 5302 5299 5298 5297 5298 5301 5305 5311 5316
5593 5583 5574 5563 5552 5540 5527 5513 5496 5477 5452 5437 5434 5420 5399 5382 5364 5351 5341 5331 5323 5318 5309 5302 5298 5294 5291 5288 5286 5284 5282 5280 5278 5277 5277 5282 5284 5289
5578 5568 5558 5546 5534 5520 5504 5488 5469 5450 5427 5404 5394 5382 5371 5356 5348 5337 5329 5320 5313 5306 5299 5294 5287 5283 5279 5274 5271 5269 5266 5264 5263 5262 5261 5262 5264 5268
5563 5552 5540 5527 5512 5497 5480 5461 5441 5420 5401 5384 5371 5359 5349 5342 5334 5327 5320 5311 5304 5296 5294 5285 5277 5273 5269 5264 5261 5257 5254 5251 5249 5247 5246 5246 5247 5251
5547 5534 5520 5505 5489 5471 5452 5433 5411 5394 5381 5370 5358 5347 5339 5333 5325 5317 5310 5305 5296 5287 5290 5279 5272 5266 5258 5252 5245 5241 5239 5237 5236 5235 5233 5232 5231 5233
5531 5516 5500 5483 5466 5447 5425 5405 5385 5368 5363 5356 5348 5340 5332 5324 5318 5310 5303 5298 5295 5282 5283 5275 5264 5259 5251 5243 5237 5232 5226 5222 5220 5218 5218 5218 5217 5217
5510 5495 5480 5461 5441 5423 5406 5390 5374 5359 5350 5345 5338 5330 5324 5317 5313 5307 5300 5293 5285 5277 5276 5270 5258 5252 5241 5232 5226 5220 5214 5209 5205 5202 5201 5202 5203 5203
5490 5472 5457 5440 5417 5399 5388 5377 5363 5353 5345 5337 5329 5324 5318 5312 5306 5300 5295 5291 5283 5272 5265 5262 5252 5246 5234 5225 5217 5211 5205 5199 5195 5192 5190 5189 5190 5191
5471 5451 5432 5416 5397 5383 5372 5362 5353 5346 5338 5330 5322 5316 5310 5304 5298 5294 5289 5284 5280 5270 5262 5255 5247 5241 5230 5221 5213 5205 5198 5193 5188 5184 5181 5177 5175 5173
5452 5430 5410 5393 5378 5367 5358 5351 5345 5339 5332 5326 5319 5312 5305 5298 5292 5285 5280 5277 5271 5268 5257 5253 5243 5236 5230 5218 5211 5203 5196 5188 5182 5176 5171 5166 5161 5157
5430 5410 5393 5379 5365 5356 5348 5343 5337 5331 5326 5319 5314 5308 5301 5295 5288 5281 5274 5267 5263 5258 5250 5245 5239 5231 5223 5218 5208 5199 5189 5182 5174 5166 5159 5154 5147 5142
5409 5391 5378 5366 5356 5348 5342 5337 5331 5326 5319 5314 5307 5300 5295 5289 5283 5275 5268 5261 5254 5252 5248 5241 5235 5229 5222 5215 5206 5198 5188 5175 5167 5158 5149 5140 5132 5127
5391 5377 5365 5355 5348 5342 5335 5330 5325 5319 5313 5306 5299 5293 5287 5281 5276 5271 5263 5257 5249 5244 5242 5237 5232 5226 5220 5212 5203 5194 5186 5177 5165 5156 5144 5131 5120 5111
5379 5366 5355 5348 5342 5335 5329 5323 5317 5310 5304 5298 5292 5286 5281 5275 5269 5265 5260 5255 5249 5241 5237 5234 5230 5225 5219 5212 5202 5196 5187 5178 5169 5155 5144 5132 5118 5106
5366 5357 5349 5343 5337 5331 5323 5316 5310 5303 5297 5291 5286 5281 5275 5270 5263 5258 5253 5248 5244 5241 5235 5231 5227 5224 5220 5214 5206 5199 5194 5185 5175 5163 5155 5144 5132 5120
5358 5351 5345 5340 5334 5327 5320 5313 5305 5298 5292 5286 5281 5275 5270 5266 5260 5255 5249 5244 5239 5234 5231 5228 5226 5224 5220 5215 5210 5204 5199 5193 5185 5176 5168 5161 5152 5143
5353 5347 5341 5335 5329 5323 5316 5309 5302 5294 5287 5281 5275 5270 5265 5261 5257 5253 5247 5242 5235 5231 5227 5225 5224 5223 5221 5217 5212 5207 5204 5199 5193 5187 5182 5176 5171 5165
5348 5344 5338 5332 5326 5320 5313 5305 5297 5288 5280 5274 5269 5264 5261 5257 5254 5249 5245 5240 5234 5229 5225 5223 5222 5222 5221 5219 5215 5211 5207 5204 5201 5196 5192 5190 5186 5183
5347 5342 5336 5331 5324 5317 5310 5301 5292 5283 5275 5268 5263 5259 5256 5253 5249 5246 5242 5237 5232 5228 5223 5221 5221 5221 5221 5220 5217 5214 5211 5208 5206 5204 5201 5200 5199 5197
5346 5341 5336 5330 5323 5315 5307 5298 5289 5281 5273 5266 5261 5257 5253 5249 5246 5242 5238 5234 5230 5226 5222 5220 5220 5220 5222 5222 5221 5218 5214 5212 5211 5210 5210 5209 5209 5207
5345 5341 5335 5329 5322 5314 5305 5296 5288 5280 5274 5267 5261 5256 5251 5246 5241 5237 5233 5230 5227 5224 5222 5220 5219 5220 5222 5223 5223 5221 5218 5217 5216 5216 5216 5217 5216 5216